Location: Caucaguita
(10.3578°N, 66.8025°W)
Time: 02:54:23
(UTC+00:00)

Cosmos 1092 Rocket - Pass Details

Date: 18 November 2025
Orbit: 953 x 994 km, 82.9° (Epoch: 09 December)

Event Time Altitude Azimuth Distance (km) Brightness Sun altitude
Rises 23:33:10 0° 1° (N) 3,641 6.8 -22.3°
Reaches altitude 10° 23:35:42 10° 4° (N) 2,690 6.1 -22.9°
Maximum altitude 23:41:48 68° 86° (E) 1,023 3.8 -24.3°
Drops below altitude 10° 23:47:52 10° 169° (SSE) 2,674 6.3 -25.8°
Sets 23:50:22 0° 171° (S) 3,619 7.1 -26.4°
